• In Portugal
  • List of Countries
  • For 7 days
  • Water Temperature
  • Satellite Maps
  • Weather Map
  • Weather Widgets
  • user-avatar
    Login

    Hourly Weather Lomnica

    Today, 26 September, Wednesday

    Time Temperature Precipitation Wind Pressure Humidity
    00:00 +4°C° 0 mm 2 mps 745 mmHg 75%
    01:00 +4°C° 0 mm 2 mps 745 mmHg 75%
    02:00 +4°C° 0 mm 2 mps 745 mmHg 75%
    03:00 +3°C° 0 mm 2 mps 745 mmHg 76%
    04:00 +3°C° 0 mm 2 mps 745 mmHg 76%
    05:00 +4°C° 0 mm 2 mps 745 mmHg 75%
    06:00 +4°C° 0 mm 2 mps 745 mmHg 73%
    07:00 +5°C° 0 mm 2 mps 745 mmHg 72%
    08:00 +7°C° 0 mm 3 mps 744 mmHg 64%
    09:00 +9°C° 0 mm 3 mps 744 mmHg 56%
    10:00 +11°C° 0 mm 4 mps 744 mmHg 47%
    11:00 +12°C° 0 mm 4 mps 744 mmHg 45%
    12:00 +12°C° 0 mm 4 mps 743 mmHg 42%
    13:00 +13°C° 0 mm 4 mps 743 mmHg 39%
    14:00 +14°C° 0 mm 4 mps 742 mmHg 40%
    15:00 +14°C° 0 mm 4 mps 742 mmHg 41%
    16:00 +14°C° 0 mm 4 mps 741 mmHg 42%
    17:00 +12°C° 0 mm 4 mps 741 mmHg 45%
    18:00 +11°C° 0 mm 3 mps 741 mmHg 49%
    19:00 +10°C° 0 mm 3 mps 740 mmHg 52%
    20:00 +9°C° 0 mm 3 mps 740 mmHg 53%
    21:00 +9°C° 0 mm 3 mps 740 mmHg 54%
    22:00 +9°C° 0 mm 3 mps 741 mmHg 55%
    23:00 +9°C° 0 mm 3 mps 740 mmHg 56%

    Tomorrow, 27 September, Thursday

    Time Temperature Precipitation Wind Pressure Humidity
    00:00 +9°C° 0 mm 3 mps 740 mmHg 56%
    01:00 +9°C° 0 mm 3 mps 740 mmHg 57%
    02:00 +9°C° 0 mm 3 mps 740 mmHg 57%
    03:00 +9°C° 0 mm 3 mps 740 mmHg 58%
    04:00 +9°C° 0 mm 3 mps 740 mmHg 58%
    05:00 +9°C° 0 mm 3 mps 740 mmHg 59%
    06:00 +10°C° 0 mm 3 mps 740 mmHg 59%
    07:00 +10°C° 0 mm 3 mps 740 mmHg 60%
    08:00 +12°C° 0 mm 3 mps 740 mmHg 57%
    09:00 +14°C° 0 mm 3 mps 740 mmHg 55%
    10:00 +17°C° 0 mm 3 mps 740 mmHg 52%
    11:00 +18°C° 0 mm 3 mps 739 mmHg 51%
    12:00 +19°C° 0 mm 3 mps 739 mmHg 51%
    13:00 +20°C° 0 mm 3 mps 739 mmHg 50%
    14:00 +20°C° 0 mm 3 mps 738 mmHg 51%
    15:00 +20°C° 0 mm 3 mps 737 mmHg 52%
    16:00 +20°C° 0 mm 3 mps 737 mmHg 52%
    17:00 +19°C° 0 mm 3 mps 736 mmHg 56%
    18:00 +17°C° 0 mm 2 mps 736 mmHg 61%
    19:00 +15°C° 0 mm 2 mps 736 mmHg 65%
    20:00 +15°C° 0 mm 2 mps 735 mmHg 65%
    21:00 +13°C° 0 mm 3 mps 735 mmHg 65%
    22:00 +13°C° 0 mm 3 mps 735 mmHg 65%
    23:00 +12°C° 0 mm 3 mps 734 mmHg 66%

    Day after tomorrow, 28 September, Friday

    Time Temperature Precipitation Wind Pressure Humidity
    00:00 +12°C° 0 mm 3 mps 734 mmHg 67%
    01:00 +11°C° 0 mm 3 mps 733 mmHg 68%
    02:00 +11°C° 0 mm 3 mps 733 mmHg 69%
    03:00 +10°C° 0 mm 2 mps 733 mmHg 70%
    04:00 +10°C° 0 mm 2 mps 732 mmHg 71%
    05:00 +10°C° 0 mm 2 mps 732 mmHg 71%
    06:00 +10°C° 0 mm 2 mps 732 mmHg 70%
    07:00 +10°C° 0 mm 2 mps 732 mmHg 70%
    08:00 +11°C° 0 mm 3 mps 733 mmHg 67%
    09:00 +13°C° 0 mm 3 mps 733 mmHg 65%
    10:00 +16°C° 0 mm 3 mps 733 mmHg 62%
    11:00 +16°C° 0 mm 3 mps 733 mmHg 63%
    12:00 +16°C° 0 mm 3 mps 733 mmHg 64%
    13:00 +15°C° 0 mm 4 mps 733 mmHg 66%
    14:00 +14°C° 0 mm 4 mps 733 mmHg 66%
    15:00 +14°C° 0 mm 4 mps 733 mmHg 67%
    16:00 +13°C° 0 mm 4 mps 733 mmHg 68%
    17:00 +12°C° 0 mm 3 mps 733 mmHg 71%
    18:00 +12°C° 0 mm 2 mps 733 mmHg 75%
    19:00 +9°C° 0 mm 2 mps 733 mmHg 79%
    20:00 +9°C° 0 mm 2 mps 733 mmHg 77%
    21:00 +8°C° 0 mm 2 mps 734 mmHg 76%
    22:00 +8°C° 0 mm 2 mps 734 mmHg 75%
    23:00 +8°C° 0 mm 2 mps 734 mmHg 73%

    29 September, Saturday

    Time Temperature Precipitation Wind Pressure Humidity
    00:00 +8°C° 0 mm 2 mps 734 mmHg 72%
    01:00 +8°C° 0 mm 2 mps 734 mmHg 71%
    02:00 +7°C° 0 mm 2 mps 734 mmHg 72%
    03:00 +7°C° 0 mm 2 mps 735 mmHg 73%
    04:00 +6°C° 0 mm 2 mps 735 mmHg 74%
    05:00 +6°C° 0 mm 2 mps 735 mmHg 75%
    06:00 +6°C° 0 mm 2 mps 735 mmHg 76%
    07:00 +5°C° 0 mm 2 mps 736 mmHg 77%
    08:00 +7°C° 0 mm 3 mps 736 mmHg 69%
    09:00 +8°C° 0 mm 3 mps 736 mmHg 61%
    10:00 +10°C° 0 mm 4 mps 737 mmHg 53%
    11:00 +11°C° 0 mm 3 mps 737 mmHg 50%
    12:00 +11°C° 0 mm 3 mps 737 mmHg 47%
    13:00 +12°C° 0 mm 3 mps 737 mmHg 44%
    14:00 +12°C° 0 mm 3 mps 737 mmHg 45%
    15:00 +11°C° 0 mm 3 mps 737 mmHg 46%
    16:00 +11°C° 0 mm 3 mps 737 mmHg 47%
    17:00 +10°C° 0 mm 2 mps 737 mmHg 52%
    18:00 +8°C° 0 mm 2 mps 737 mmHg 58%
    19:00 +8°C° 0 mm 1 mps 738 mmHg 64%
    20:00 +7°C° 0 mm 1 mps 738 mmHg 65%
    21:00 +7°C° 0 mm 1 mps 738 mmHg 66%
    22:00 +6°C° 0 mm 1 mps 738 mmHg 67%
    23:00 +6°C° 0 mm 1 mps 738 mmHg 68%

    30 September, Sunday

    Time Temperature Precipitation Wind Pressure Humidity
    00:00 +6°C° 0 mm 1 mps 738 mmHg 69%
    01:00 +6°C° 0 mm 1 mps 738 mmHg 70%
    02:00 +6°C° 0 mm 1 mps 737 mmHg 71%
    03:00 +5°C° 0 mm 1 mps 737 mmHg 72%
    04:00 +5°C° 0 mm 1 mps 737 mmHg 73%
    05:00 +6°C° 0 mm 1 mps 737 mmHg 72%
    06:00 +6°C° 0 mm 1 mps 737 mmHg 71%
    07:00 +6°C° 0 mm 1 mps 737 mmHg 70%
    08:00 +9°C° 0 mm 1 mps 737 mmHg 62%
    09:00 +11°C° 0 mm 1 mps 737 mmHg 54%
    10:00 +13°C° 0 mm 1 mps 737 mmHg 46%
    11:00 +14°C° 0 mm 1 mps 737 mmHg 43%
    12:00 +14°C° 0 mm 2 mps 736 mmHg 40%
    13:00 +15°C° 0 mm 2 mps 736 mmHg 37%
    14:00 +15°C° 0 mm 2 mps 735 mmHg 38%
    15:00 +15°C° 0 mm 2 mps 735 mmHg 39%
    16:00 +15°C° 0 mm 2 mps 734 mmHg 40%
    17:00 +13°C° 0 mm 2 mps 734 mmHg 45%
    18:00 +10°C° 0 mm 2 mps 734 mmHg 51%
    19:00 +9°C° 0 mm 1 mps 733 mmHg 56%
    20:00 +8°C° 0 mm 1 mps 733 mmHg 57%
    21:00 +8°C° 0 mm 1 mps 733 mmHg 58%
    22:00 +8°C° 0 mm 1 mps 732 mmHg 58%
    23:00 +7°C° 0 mm 1 mps 732 mmHg 59%

    1 October, Monday

    Time Temperature Precipitation Wind Pressure Humidity
    00:00 +7°C° 0 mm 1 mps 731 mmHg 59%
    01:00 +7°C° 0 mm 1 mps 731 mmHg 60%
    02:00 +7°C° 0 mm 1 mps 730 mmHg 61%
    03:00 +6°C° 0 mm 1 mps 730 mmHg 61%
    04:00 +6°C° 0 mm 1 mps 729 mmHg 62%
    05:00 +7°C° 0 mm 1 mps 729 mmHg 62%
    06:00 +7°C° 0 mm 1 mps 729 mmHg 63%
    07:00 +7°C° 0 mm 1 mps 728 mmHg 63%
    08:00 +9°C° 0 mm 1 mps 728 mmHg 58%
    09:00 +12°C° 0 mm 2 mps 728 mmHg 53%
    10:00 +14°C° 0 mm 2 mps 728 mmHg 48%
    11:00 +15°C° 0 mm 2 mps 727 mmHg 45%
    12:00 +16°C° 0 mm 2 mps 727 mmHg 43%
    13:00 +17°C° 0 mm 2 mps 726 mmHg 40%
    14:00 +17°C° 0 mm 2 mps 725 mmHg 41%
    15:00 +16°C° 0 mm 2 mps 725 mmHg 42%
    16:00 +16°C° 0 mm 2 mps 724 mmHg 43%
    17:00 +14°C° 0 mm 1 mps 724 mmHg 49%
    18:00 +12°C° 0 mm 1 mps 724 mmHg 54%
    19:00 +10°C° 0 mm 1 mps 724 mmHg 60%
    20:00 +10°C° 0 mm 1 mps 724 mmHg 62%
    21:00 +9°C° 0 mm 1 mps 724 mmHg 63%
    22:00 +8°C° 0 mm 1 mps 724 mmHg 65%
    23:00 +8°C° 0 mm 1 mps 724 mmHg 66%
    Show more